EW6187 Weather Reports


Display with metric or nautical units.
time (UTC)temp
F
wind
direction
speed
MPH
gust
MPH
rain 1hr
in
rain 24hr
in
rain mn
in
humidity
%
barometer
mb
20260506201704 59 146 2.0 3.0 0.01 0.11 0.11 94 1006.6
20260506201204 59 163 1.0 3.0 0.00 0.10 0.10 94 1006.6
20260506200705 59 203 1.0 3.0 0.00 0.10 0.10 94 1006.6
20260506200205 59 147 1.0 5.0 0.01 0.10 0.10 94 1006.5
20260506195204 59 178 2.0 3.0 0.01 0.10 0.10 94 1006.7
20260506194204 59 143 2.0 3.0 0.01 0.10 0.10 94 1006.8
20260506193705 59 174 2.0 3.0 0.01 0.10 0.10 93 1006.8
20260506193205 59 161 2.0 3.0 0.02 0.10 0.10 93 1006.8
20260506192705 59 166 2.0 8.0 0.02 0.10 0.10 93 1006.9
20260506192204 59 154 2.0 5.0 0.03 0.10 0.10 93 1007.0
20260506191704 59 190 2.0 6.0 0.03 0.10 0.10 93 1007.0
20260506191205 59 166 3.0 3.0 0.04 0.10 0.10 93 1007.0
20260506190704 59 175 2.0 5.0 0.04 0.10 0.10 93 1007.0
20260506190205 59 158 2.0 6.0 0.03 0.09 0.09 93 1007.0
20260506185705 59 153 2.0 3.0 0.04 0.09 0.09 93 1007.2
20260506185205 59 145 2.0 3.0 0.04 0.09 0.09 93 1007.2
20260506184704 59 200 2.0 3.0 0.04 0.09 0.09 93 1007.2
20260506184204 59 154 2.0 5.0 0.05 0.09 0.09 93 1007.4
20260506183704 59 172 3.0 5.0 0.05 0.09 0.09 93 1007.6
20260506183204 59 195 1.0 2.0 0.05 0.08 0.08 92 1007.7
20260506182704 59 157 2.0 3.0 0.05 0.08 0.08 92 1007.6
20260506182204 59 149 2.0 6.0 0.04 0.07 0.07 92 1007.6
20260506181705 59 139 3.0 6.0 0.04 0.07 0.07 92 1007.7
20260506181204 60 155 2.0 5.0 0.03 0.06 0.06 91 1007.6
20260506180704 60 142 2.0 5.0 0.04 0.06 0.06 91 1007.2
20260506180204 60 141 2.0 6.0 0.04 0.06 0.06 91 1007.4
20260506175704 60 155 1.0 5.0 0.05 0.05 0.05 91 1007.5
20260506175204 60 148 1.0 3.0 0.05 0.05 0.05 91 1007.5
20260506174705 60 150 1.0 3.0 0.05 0.05 0.05 90 1007.6
20260506174204 60 150 2.0 3.0 0.04 0.04 0.04 90 1007.8
20260506173704 60 145 2.0 3.0 0.04 0.04 0.04 89 1007.9
20260506173205 61 145 2.0 3.0 0.03 0.03 0.03 89 1008.1
20260506172704 61 163 2.0 3.0 0.03 0.03 0.03 88 1008.3
20260506172204 61 160 1.0 3.0 0.03 0.03 0.03 88 1008.5
20260506171704 61 166 1.0 3.0 0.03 0.03 0.03 87 1008.6
20260506171204 62 143 1.0 3.0 0.03 0.03 0.03 86 1008.6
20260506170705 62 163 2.0 5.0 0.02 0.02 0.02 85 1008.7
20260506170205 62 192 2.0 3.0 0.02 0.02 0.02 84 1008.6
20260506165704 63 167 2.0 6.0 0.00 0.00 0.00 82 1008.7
20260506164705 64 159 1.0 3.0 0.00 0.00 0.00 80 1008.8
20260506163704 64 189 3.0 6.0 0.00 0.00 0.00 79 1008.6
20260506163205 64 173 2.0 9.0 0.00 0.00 0.00 79 1008.6
20260506162704 65 152 3.0 10.0 0.00 0.00 0.00 79 1008.6
20260506162204 65 201 3.0 9.0 0.00 0.00 0.00 77 1008.5
20260506161704 65 192 3.0 8.0 0.00 0.00 0.00 77 1008.4
20260506160705 65 175 5.0 12.0 0.00 0.00 0.00 76 1008.7
20260506155704 65 209 3.0 9.0 0.00 0.00 0.00 76 1008.8
20260506155204 65 203 5.0 10.0 0.00 0.00 0.00 75 1009.0
20260506154705 65 214 2.0 9.0 0.00 0.00 0.00 75 1009.0
20260506154204 65 164 4.0 10.0 0.00 0.00 0.00 75 1009.1
20260506153705 65 193 5.0 14.0 0.00 0.00 0.00 75 1009.2
20260506153204 66 221 5.0 9.0 0.00 0.00 0.00 74 1009.0
20260506152705 66 216 4.0 10.0 0.00 0.00 0.00 74 1009.0
20260506152205 66 195 6.0 12.0 0.00 0.00 0.00 73 1008.9
20260506151204 66 175 2.0 3.0 0.00 0.00 0.00 74 1008.8
20260506150704 66 194 4.0 12.0 0.00 0.00 0.00 74 1008.9
20260506150204 66 159 3.0 9.0 0.00 0.00 0.00 74 1008.9
20260506145704 66 190 5.0 8.0 0.00 0.00 0.00 73 1008.9
20260506145205 66 153 5.0 10.0 0.00 0.00 0.00 73 1008.9
20260506144704 66 186 3.0 9.0 0.00 0.00 0.00 74 1009.0
20260506143705 66 191 5.0 12.0 0.00 0.00 0.00 74 1009.0
20260506143205 66 209 5.0 10.0 0.00 0.00 0.00 74 1009.1
20260506142704 66 171 6.0 12.0 0.00 0.00 0.00 74 1009.1
20260506142204 66 160 6.0 10.0 0.00 0.00 0.00 74 1009.1
20260506141704 66 170 3.0 9.0 0.00 0.00 0.00 75 1009.1
20260506141204 66 153 4.0 12.0 0.00 0.00 0.00 76 1009.2
20260506140704 65 196 5.0 12.0 0.00 0.00 0.00 76 1009.2
20260506135204 64 182 3.0 8.0 0.00 0.00 0.00 78 1009.3
20260506134705 64 172 3.0 9.0 0.00 0.00 0.00 78 1009.0
20260506134204 64 162 3.0 6.0 0.00 0.00 0.00 78 1009.1
20260506133704 64 171 3.0 12.0 0.00 0.00 0.00 78 1009.0
20260506133204 64 170 3.0 9.0 0.00 0.00 0.00 79 1008.9
20260506131704 63 166 3.0 8.0 0.00 0.00 0.00 81 1009.3
20260506130704 62 194 2.0 5.0 0.00 0.00 0.00 82 1009.3
20260506130204 62 167 3.0 6.0 0.00 0.00 0.00 82 1009.1
20260506125704 62 178 4.0 9.0 0.00 0.00 0.00 83 1009.2
20260506125204 62 168 3.0 6.0 0.00 0.00 0.00 83 1009.4
20260506124704 62 188 2.0 5.0 0.00 0.00 0.00 83 1009.5
20260506124204 62 154 3.0 8.0 0.00 0.00 0.00 83 1009.7
20260506123704 61 159 2.0 5.0 0.00 0.00 0.00 84 1009.8
20260506123204 61 219 2.0 3.0 0.00 0.00 0.00 84 1009.9
20260506122704 61 203 1.0 5.0 0.00 0.00 0.00 84 1009.8
20260506122204 61 153 3.0 6.0 0.00 0.00 0.00 85 1009.8
20260506121204 60 215 2.0 5.0 0.00 0.00 0.00 86 1009.8
20260506120705 60 235 5.0 10.0 0.00 0.00 0.00 86 1009.7
20260506115704 60 215 3.0 9.0 0.00 0.00 0.00 86 1009.7
20260506115205 60 204 2.0 6.0 0.00 0.00 0.00 86 1009.7
20260506114704 59 186 2.0 7.0 0.00 0.00 0.00 87 1009.7
20260506114205 59 238 3.0 9.0 0.00 0.00 0.00 87 1009.8
20260506113704 59 180 3.0 3.0 0.00 0.00 0.00 87 1009.8
20260506113204 59 218 2.0 9.0 0.00 0.00 0.00 87 1009.7
20260506112704 59 214 1.0 3.0 0.00 0.00 0.00 87 1009.7
20260506112205 59 168 2.0 5.0 0.00 0.00 0.00 88 1009.6
20260506111704 59 177 3.0 6.0 0.00 0.00 0.00 88 1009.7
20260506111204 58 199 3.0 8.0 0.00 0.00 0.00 88 1010.0
20260506110704 58 201 3.0 6.0 0.00 0.00 0.00 88 1010.0
20260506110204 58 219 3.0 9.0 0.00 0.00 0.00 89 1010.0
20260506105704 58 150 1.0 3.0 0.00 0.00 0.00 89 1009.9
20260506105205 58 165 1.0 2.0 0.00 0.00 0.00 89 1009.9
20260506104704 58 198 1.0 3.0 0.00 0.00 0.00 88 1009.8
20260506104204 58 207 1.0 3.0 0.00 0.00 0.00 89 1009.9
20260506103205 57 195 0.0 2.0 0.00 0.00 0.00 89 1009.8
20260506102705 57 148 2.0 3.0 0.00 0.00 0.00 88 1009.8
20260506102204 57 178 1.0 2.0 0.00 0.00 0.00 88 1009.6
20260506101704 57 183 1.0 3.0 0.00 0.00 0.00 88 1009.7
20260506101204 57 173 1.0 5.0 0.00 0.00 0.00 88 1009.7
20260506100705 57 174 0.0 2.0 0.00 0.00 0.00 88 1009.7
20260506100205 57 170 2.0 3.0 0.00 0.00 0.00 88 1009.6
20260506095705 57 167 1.0 3.0 0.00 0.00 0.00 88 1009.6
20260506094704 58 203 2.0 5.0 0.00 0.00 0.00 87 1009.6
20260506093705 58 157 1.0 3.0 0.00 0.00 0.00 87 1009.6
20260506093205 58 182 2.0 3.0 0.00 0.00 0.00 87 1009.5
20260506092705 58 165 1.0 2.0 0.00 0.00 0.00 87 1009.6
20260506092204 58 166 1.0 3.0 0.00 0.00 0.00 87 1009.7
20260506091704 58 160 2.0 3.0 0.00 0.00 0.00 87 1009.6
20260506090704 58 159 0.0 2.0 0.00 0.00 0.00 86 1009.7
20260506090204 58 147 1.0 2.0 0.00 0.00 0.00 86 1009.8
20260506085704 58 139 0.0 2.0 0.00 0.00 0.00 86 1009.8
20260506085204 58 162 1.0 3.0 0.00 0.00 0.00 86 1009.7
20260506084705 58 167 1.0 5.0 0.00 0.00 0.00 86 1009.7
20260506084204 58 185 2.0 3.0 0.00 0.00 0.00 86 1009.8
20260506083704 58 169 2.0 3.0 0.00 0.00 0.00 85 1009.8
20260506083204 58 196 1.0 3.0 0.00 0.00 0.00 85 1009.9
20260506082704 58 183 0.0 2.0 0.00 0.00 0.00 85 1009.8
20260506081704 58 164 2.0 3.0 0.00 0.00 0.00 85 1009.7
20260506081204 59 162 1.0 3.0 0.00 0.00 0.00 85 1009.6
20260506080704 59 163 1.0 3.0 0.00 0.00 0.00 85 1009.6
20260506080204 59 194 1.0 3.0 0.00 0.00 0.00 85 1009.8
20260506073204 59 175 1.0 2.0 0.00 0.00 0.00 83 1009.7
20260506072705 59 154 1.0 3.0 0.00 0.00 0.00 83 1009.7
20260506072204 59 167 2.0 3.0 0.00 0.00 0.00 83 1009.8
20260506071704 59 153 2.0 5.0 0.00 0.00 0.00 83 1009.8
20260506071205 59 168 2.0 9.0 0.00 0.00 0.00 82 1009.8
20260506070704 59 152 2.0 3.0 0.00 0.00 0.00 82 1009.8
20260506070204 60 150 1.0 3.0 0.00 0.00 0.00 82 1009.8
20260506062204 60 181 1.0 2.0 0.00 0.00 0.00 81 1009.6
20260506061705 60 152 1.0 2.0 0.00 0.00 0.00 80 1009.6
20260506061205 60 162 1.0 3.0 0.00 0.00 0.00 80 1009.6
20260506060704 61 148 1.0 2.0 0.00 0.00 0.00 80 1009.6
20260506060204 61 168 0.0 2.0 0.00 0.00 0.00 80 1009.6
20260506051205 62 180 3.0 6.0 0.00 0.00 0.00 78 1010.0
20260506050704 62 174 1.0 3.0 0.00 0.00 0.00 78 1010.0
20260506050204 62 158 3.0 6.0 0.00 0.00 0.00 78 1009.9
20260506044704 62 173 2.0 6.0 0.00 0.00 0.00 77 1010.0
20260506044205 62 168 2.0 7.0 0.00 0.00 0.00 76 1010.1
20260506043705 63 159 3.0 7.0 0.00 0.00 0.00 76 1010.0
20260506043205 63 198 3.0 9.0 0.00 0.00 0.00 76 1010.0
20260506042204 63 206 3.0 6.0 0.00 0.00 0.00 75 1010.0
20260506041204 63 163 2.0 5.0 0.00 0.00 0.00 74 1009.9
20260506040707 63 192 2.0 9.0 0.00 0.00 0.00 74 1010.0
20260506040205 63 165 3.0 7.0 0.00 0.00 0.00 73 1009.9
20260506035705 63 163 4.0 12.0 0.00 0.00 0.00 73 1009.9
20260506035204 63 217 2.0 9.0 0.00 0.00 0.00 72 1010.0
20260506034705 63 197 3.0 6.0 0.00 0.00 0.00 72 1009.8
20260506034204 63 170 2.0 7.0 0.00 0.00 0.00 71 1009.9
20260506033204 63 221 4.0 13.0 0.00 0.00 0.00 71 1010.0
20260506032204 64 205 3.0 9.0 0.00 0.00 0.00 70 1010.0
20260506031704 64 180 3.0 8.0 0.00 0.00 0.00 70 1009.8
20260506030704 64 178 3.0 10.0 0.00 0.00 0.00 70 1009.9
20260506025204 64 164 3.0 6.0 0.00 0.00 0.00 70 1009.9
20260506024704 64 227 3.0 7.0 0.00 0.00 0.00 70 1009.8
20260506024205 64 165 1.0 3.0 0.00 0.00 0.00 70 1009.8
20260506023704 64 163 3.0 7.0 0.00 0.00 0.00 70 1009.8
20260506022704 63 213 3.0 8.0 0.00 0.00 0.00 70 1009.9
20260506022205 64 154 2.0 3.0 0.00 0.00 0.00 69 1009.8
20260506021704 64 175 1.0 2.0 0.00 0.00 0.00 69 1009.9
20260506021204 64 176 2.0 3.0 0.00 0.00 0.00 69 1009.8
20260506020705 64 161 2.0 3.0 0.00 0.00 0.00 68 1009.8
20260506015705 64 199 1.0 3.0 0.00 0.00 0.00 68 1009.8
20260506015205 64 168 1.0 3.0 0.00 0.00 0.00 68 1009.8
20260506014704 64 184 2.0 5.0 0.00 0.00 0.00 68 1009.8
20260506014205 64 168 2.0 3.0 0.00 0.00 0.00 67 1009.7
20260506013704 64 152 2.0 6.0 0.00 0.00 0.00 67 1009.6
20260506013204 64 202 2.0 9.0 0.00 0.00 0.00 67 1009.5
20260506012704 64 154 2.0 5.0 0.00 0.00 0.00 67 1009.5
20260506011704 65 211 3.0 8.0 0.00 0.00 0.00 66 1009.5
20260506011204 65 171 2.0 3.0 0.00 0.00 0.00 65 1009.3
20260506010704 65 174 1.0 9.0 0.00 0.00 0.00 65 1009.3
20260506010204 65 172 3.0 9.0 0.00 0.00 0.00 65 1009.2
20260506005704 65 186 3.0 6.0 0.00 0.00 0.00 64 1009.1
20260506005204 65 207 3.0 10.0 0.00 0.00 0.00 64 1009.1
20260506004205 65 223 3.0 10.0 0.00 0.00 0.00 64 1009.1
20260506003705 65 173 3.0 7.0 0.00 0.00 0.00 64 1008.9
20260506003205 65 181 2.0 6.0 0.00 0.00 0.00 64 1008.8
20260506002704 66 219 3.0 8.0 0.00 0.00 0.00 63 1008.6
20260506002204 66 207 2.0 6.0 0.00 0.00 0.00 63 1008.5
20260506001704 66 163 2.0 10.0 0.00 0.00 0.00 63 1008.5
20260506000205 67 210 3.0 7.0 0.00 0.00 0.00 62 1008.2
20260505234704 67 179 4.0 12.0 0.00 0.00 0.00 62 1008.1
20260505234204 67 191 5.0 12.0 0.00 0.00 0.00 62 1008.0
20260505233705 68 197 3.0 10.0 0.00 0.00 0.00 61 1007.9
20260505233204 68 170 4.0 9.0 0.00 0.00 0.00 61 1008.0
20260505232205 68 196 3.0 6.0 0.00 0.00 0.00 61 1007.9
20260505231704 68 175 4.0 10.0 0.00 0.00 0.00 60 1007.8
20260505231204 69 194 5.0 12.0 0.00 0.00 0.00 60 1007.7
20260505230705 69 196 5.0 9.0 0.00 0.00 0.00 60 1007.6
20260505230205 69 165 5.0 9.0 0.00 0.00 0.00 60 1007.7
20260505225705 69 179 2.0 6.0 0.00 0.00 0.00 60 1007.6
20260505225205 70 175 5.0 9.0 0.00 0.00 0.00 59 1007.5
20260505224705 70 161 5.0 8.0 0.00 0.00 0.00 59 1007.4
20260505224204 70 156 3.0 8.0 0.00 0.00 0.00 59 1007.3
20260505223204 71 164 6.0 13.0 0.00 0.00 0.00 58 1007.1
20260505222704 71 170 4.0 12.0 0.00 0.00 0.00 57 1007.3
20260505222205 71 169 6.0 9.0 0.00 0.00 0.00 57 1007.4
20260505221205 72 155 4.0 9.0 0.00 0.00 0.00 56 1007.5
20260505220704 72 154 4.0 9.0 0.00 0.00 0.00 56 1007.4
20260505220204 72 181 3.0 7.0 0.00 0.00 0.00 56 1007.5
20260505215704 73 149 6.0 10.0 0.00 0.00 0.00 54 1007.4
20260505215205 73 159 5.0 8.0 0.00 0.00 0.00 54 1007.4
20260505213704 73 194 4.0 10.0 0.00 0.00 0.00 55 1007.3
20260505213206 73 188 5.0 7.0 0.00 0.00 0.00 55 1007.3